Location: Milevsko
(49.4500°N, 14.3670°E)
Time: 04:18:10
(UTC+01:00)

ISS - Pass Details

Date: 16 January 2026
Orbit: 413 x 428 km, 51.6° (Epoch: 18 February)

Event Time Altitude Azimuth Distance (km) Brightness Sun altitude
Rises 17:39:23 0° 229° (SW) 2,350 1.5 -10.6°
Reaches altitude 10° 17:41:31 10° 222° (SW) 1,493 0.1 -10.9°
Maximum altitude 17:44:43 42° 150° (SSE) 608 -3.1 -11.4°
Enters shadow 17:46:50 19° 86° (E) 1,093 -2.3 -11.7°
